Weather in Degtyarnoe

Russia / Voronezh Oblast     50°38′32″N   39°16′17″E
temp.,
°C
wind,
m/s
gust,
m/s
humid.,
%
clouds,
%
prec.,
mm/h
press.,
hPa
HPBL,
m
25 february, thu
thu2500:00−13ssw51094100 0.4 1036366
03:00−11ssw6119499 0.8 1034381
06:00−10sw61292100 0.4 1032407
09:00−8sw71293100 0.4 1030380
12:00−4sw71193100 0.1 1028438
15:00−2sw71295100 0.2 1024374
18:000wsw81496100 0.2 1022424
21:00+2w61298100 0.4 1021296
26 february, fri
fri2600:00+1w51199100 0.2 1021299
03:00+1w51199100 0.4 1021325
06:00+1w51299100 0.1 1020292
09:00+1w5999100 0.1 1020254
12:00+2w510100100 0.0 1019250
15:00+3wsw71499100 0.0 1017378
18:00+2w71498100 0.0 1015506
21:00+2w61298100 0.3 1014353
27 february, sat
sat2700:00+2wsw61296100 0.1 1013310
03:00+1w51196100 0.1 1012406
06:00+1w61195100 0.0 1010432
09:00+1w61297100 0.0 1010497
12:00+1wnw61197100 0.1 1009560
15:00+1w61198100 0.1 1010560
18:00+1wnw61197100 0.1 1009565
21:000wnw5998100 0.3 1010447
28 february, sun
sun2800:000wnw4998100 0.3 1010381
03:000nw489699 0.4 1011395
06:00−1nnw379793 0.1 1012366
09:00−1n479194 0.4 1014598
12:00−2n458298 0.1 1016655
15:00−2nnw577998 0.1 1017743
18:00−3n588499 0.0 1019648
21:00−3n5886100 0.1 1021781
1 march, mon
mon100:00−3n389091 0.0 1023629
03:00−4n379394 0.1 1024545
06:00−4nnw259786 0.1 1025267
09:00−4n588193 0.3 1027722
12:00−3n467555 0.0 1029870
15:00−2nnw457377 0.1 1029947
18:00−3nnw3675100 0.1 1030684
21:00−4nw258690 0.1 1031158